Theta_e
336 336 337 337 337 338 338 337 338 338 338 340 340 340 340 340 340 340 341 344 345 343 344 343 342 343 342 341 339 338 339 343 345 346 346 346 347 347 347 346 344 344 343 344 342 342 342 343 341 341 339 338 341 340 339 340 339 337 337 339 331 333 331 336 330 332 330 335 335 336 333 337 339 339 338 337 336 336 335 336 336 335 335 337 336
330 331 334 336 336 337 338 338 338 336 338 339 339 339 339 340 340 341 342 342 342 342 345 345 346 344 341 341 341 341 339 339 339 344 346 346 345 344 345 345 344 344 344 344 343 342 341 341 341 342 342 341 340 341 340 341 338 336 337 336 336 334 334 333 333 333 328 328 328 327 331 328 331 336 337 338 341 339 337 335 335 334 333 336 338
324 324 325 325 328 330 334 334 335 335 336 337 338 339 339 339 340 341 341 342 342 342 341 342 345 345 342 339 341 339 340 342 342 343 344 345 346 346 345 345 345 343 343 343 342 342 342 341 342 342 342 341 339 336 339 339 338 336 336 334 335 336 335 335 334 334 329 331 327 326 322 321 325 329 331 334 338 337 338 335 333 335 334 333 337
318 319 320 322 323 326 327 329 331 331 332 333 334 335 337 338 339 339 340 341 341 342 341 342 342 344 344 345 341 339 338 339 342 345 342 344 344 345 345 344 343 344 343 342 341 341 342 340 342 341 341 339 339 337 338 337 336 335 338 336 334 332 332 331 335 332 335 327 319 321 321 321 316 321 325 332 337 336 334 337 339 336 335 334 336
315 316 317 318 319 320 322 324 327 327 328 330 331 332 333 334 337 339 339 340 341 341 342 343 343 344 344 344 345 343 340 339 342 338 344 343 343 343 343 342 341 341 342 341 341 341 341 341 339 339 340 340 339 338 337 336 335 337 337 336 335 332 330 332 333 333 333 333 328 324 321 318 318 321 327 328 335 332 333 334 334 334 335 335 336
315 314 315 316 317 318 319 320 322 323 323 326 329 329 331 333 335 337 339 340 342 345 345 344 343 341 340 338 337 337 335 338 335 334 335 340 339 343 344 342 340 340 341 342 342 341 341 341 341 339 341 340 340 339 338 337 334 337 337 338 333 335 332 330 327 331 333 334 335 332 332 321 320 326 325 320 331 333 333 331 331 333 335 337 336
314 314 315 315 315 316 317 318 319 320 322 325 326 327 328 330 333 336 337 337 339 341 342 343 343 341 341 336 338 335 333 333 337 338 338 340 343 342 342 344 342 341 342 342 341 341 341 341 341 341 339 340 339 338 336 337 335 336 337 337 337 334 330 327 329 328 330 330 332 336 334 332 332 326 321 325 320 326 331 330 329 333 336 335 332
313 313 314 315 315 316 316 317 318 319 322 324 325 326 327 328 330 332 335 337 338 339 339 341 340 339 338 338 335 334 336 332 337 339 342 341 339 341 341 341 342 343 341 341 340 341 341 341 340 340 339 339 340 337 336 336 336 336 336 336 338 336 333 332 330 330 327 328 334 335 333 332 333 331 329 324 322 320 322 331 331 331 333 334 334
312 312 313 313 314 315 316 317 319 320 321 322 323 324 325 326 327 330 331 332 333 334 335 336 338 339 338 339 338 336 335 335 339 338 338 338 339 340 340 340 341 343 341 340 340 341 341 340 340 339 339 338 337 337 338 336 336 335 335 332 334 335 335 333 332 332 332 329 330 329 332 331 330 330 330 328 322 321 321 321 321 328 330 336 335
313 313 314 314 315 316 317 318 318 319 320 322 323 324 325 326 326 327 327 329 331 332 333 333 335 336 337 337 337 337 336 339 340 337 336 337 336 337 338 339 339 340 342 341 341 341 342 341 340 339 339 337 336 336 336 336 337 336 334 335 337 333 333 333 331 330 330 336 334 331 328 329 325 327 327 327 326 325 320 321 325 322 323 326 333
312 313 314 315 316 316 318 317 318 320 321 322 322 323 324 324 325 325 326 327 328 329 330 331 334 335 335 336 337 336 337 337 338 338 336 335 335 339 339 337 338 339 340 342 341 341 341 341 340 339 339 338 337 335 336 336 336 336 336 335 335 333 331 332 332 333 335 333 329 328 329 330 327 323 325 326 326 324 322 320 323 323 324 324 329
311 311 312 314 315 316 317 316 317 318 320 320 321 321 322 323 323 324 325 325 326 328 329 330 331 332 333 334 334 335 337 336 336 335 337 333 334 334 337 337 336 337 339 339 341 342 341 340 341 339 338 338 336 337 337 336 338 336 335 334 333 334 333 332 332 332 332 332 328 330 335 334 331 329 330 331 328 325 323 321 324 325 325 327 329
311 311 312 313 313 314 315 316 317 317 317 318 319 320 320 321 322 322 323 324 325 326 326 327 329 329 330 332 333 333 334 335 335 335 336 333 333 335 337 336 335 333 335 338 339 341 340 339 339 338 337 337 337 337 338 338 337 335 335 335 334 333 334 334 333 333 333 331 329 335 332 333 331 332 330 331 331 328 326 323 326 330 324 324 326
311 312 312 312 312 313 314 315 315 316 316 317 318 318 319 319 320 320 321 323 324 325 325 325 326 328 329 330 331 332 332 333 334 333 335 335 335 335 336 334 336 335 335 335 341 336 339 339 339 338 338 338 337 337 337 338 338 335 335 335 334 334 335 335 334 333 331 330 336 333 331 331 332 332 331 332 328 327 325 324 325 322 325 323 327
311 311 311 312 313 314 314 314 315 315 316 316 316 317 317 318 318 319 320 321 322 323 324 324 325 326 327 328 329 330 330 331 332 333 332 333 334 335 335 335 336 337 336 338 337 338 340 339 339 338 338 339 338 337 337 337 338 337 335 335 334 334 334 334 334 331 332 332 331 332 335 334 332 332 333 331 331 328 329 328 326 322 321 323 321
310 310 310 311 312 313 313 314 314 314 315 316 315 316 316 316 317 318 319 320 321 321 322 323 324 325 326 327 326 326 327 329 330 333 334 335 334 334 334 336 336 337 337 338 338 336 338 340 338 338 339 339 335 336 337 335 338 338 336 337 335 338 336 335 335 333 333 331 331 333 333 332 333 333 333 333 336 335 334 332 330 326 320 316 323
309 309 310 311 311 312 312 313 313 313 314 315 315 315 315 316 316 316 317 319 319 320 321 321 322 323 324 325 326 326 327 326 327 329 332 335 335 335 335 335 337 337 338 339 336 332 335 338 336 334 334 336 336 338 338 339 338 334 336 336 336 336 334 333 333 335 336 334 330 334 333 331 331 334 335 336 335 334 333 332 331 327 325 320 319
309 309 310 311 311 311 312 313 314 313 314 314 315 316 316 317 317 317 317 317 318 319 319 320 320 321 322 323 323 325 326 327 328 328 330 333 334 335 335 335 335 335 336 338 337 333 332 336 334 335 334 335 335 337 335 335 335 336 336 337 337 336 335 334 335 334 335 336 334 335 331 331 334 337 337 336 334 334 333 331 331 330 330 324 322
308 308 309 309 310 311 311 312 313 314 314 315 315 316 317 317 317 318 318 317 318 318 319 320 320 320 320 320 322 323 325 325 326 326 327 329 332 333 334 334 335 336 336 335 335 334 332 331 334 334 333 332 336 336 335 335 337 336 335 337 338 336 335 335 336 334 333 334 333 330 332 332 337 336 334 334 334 333 332 331 333 332 331 329 327
307 308 308 309 310 311 311 312 312 313 313 314 315 315 316 316 317 317 318 318 318 318 318 318 319 318 318 319 321 321 322 322 323 324 325 327 329 332 333 334 334 334 334 335 334 333 332 331 332 335 332 332 332 335 335 333 334 334 332 333 333 334 334 334 336 336 334 334 332 331 331 334 334 333 333 333 332 332 335 335 332 332 333 330 330
307 308 308 309 310 311 312 313 313 314 314 314 314 314 315 315 316 317 316 316 317 317 318 318 317 317 317 317 318 320 320 321 321 322 324 327 328 330 331 333 334 333 333 332 334 333 332 333 332 331 330 331 331 333 333 333 331 332 330 335 335 335 333 334 334 333 333 333 331 331 333 334 335 333 333 333 331 332 333 333 334 332 329 328 327
307 308 308 309 309 311 312 312 312 312 312 313 313 314 314 314 314 315 315 315 315 316 317 317 317 317 317 317 317 318 319 319 319 320 321 322 323 326 329 331 333 333 334 333 331 331 331 329 329 330 330 333 335 333 332 332 331 330 328 332 333 334 332 332 332 331 331 331 333 333 332 332 333 333 332 330 332 334 334 334 333 332 333 330 330
307 308 308 309 309 309 309 310 310 311 311 312 312 313 312 313 314 315 314 315 315 316 316 317 317 317 317 316 316 317 317 318 317 318 318 319 321 323 327 329 331 332 333 332 332 330 329 329 330 330 329 330 330 331 331 328 329 329 328 334 336 335 333 332 331 331 331 332 334 334 333 331 333 334 332 331 335 331 331 329 328 331 330 331 331
307 308 308 308 308 309 308 308 308 309 310 310 310 311 312 312 312 312 313 314 315 315 316 317 317 316 317 316 315 316 316 316 315 316 316 317 319 321 324 327 330 332 330 331 330 330 329 330 328 329 329 329 330 332 332 330 329 329 332 332 333 334 332 332 331 331 331 331 331 332 331 332 333 332 330 333 334 333 332 330 331 333 330 332 333
306 306 306 307 307 307 307 307 307 308 308 309 309 309 310 311 312 312 313 314 314 315 315 316 316 316 315 315 315 315 315 315 315 315 315 315 315 317 320 322 327 330 330 330 330 329 328 327 327 329 329 327 328 329 330 329 331 329 329 330 332 332 333 332 333 332 332 331 331 330 333 330 332 330 331 331 332 331 331 332 331 331 330 331 331
305 306 306 306 306 306 306 307 307 307 308 308 308 308 309 310 311 312 312 313 313 314 314 315 315 314 314 314 314 314 314 314 314 314 313 313 313 315 317 319 323 327 328 327 328 329 328 328 328 328 329 328 330 330 329 328 330 330 329 330 334 332 333 333 333 333 332 333 333 332 331 331 329 331 329 331 332 331 331 330 329 328 330 330 329
305 305 305 305 305 305 306 306 306 307 308 308 307 307 308 309 310 311 312 313 313 313 313 314 314 314 313 313 313 313 313 313 313 313 314 312 311 312 314 316 319 320 324 326 327 326 327 329 331 331 329 329 331 331 331 330 328 331 331 330 332 332 333 332 333 333 332 332 332 332 331 331 330 330 330 330 331 332 331 331 330 331 332 333 328
305 304 304 304 305 305 306 306 306 306 307 307 308 308 308 308 308 309 310 312 313 313 313 313 313 312 312 313 313 313 314 313 313 313 313 312 312 310 311 313 315 316 318 317 318 324 326 329 328 328 329 330 330 329 328 328 329 330 329 329 331 328 331 333 334 333 334 333 333 333 333 333 332 334 331 333 334 333 332 331 332 329 327 326 327
303 303 304 304 304 304 305 305 305 306 306 307 307 307 308 308 308 308 309 310 312 312 312 312 312 311 311 312 313 313 313 313 312 312 312 311 310 309 309 310 311 312 314 315 315 316 319 324 327 328 328 329 328 327 329 328 327 328 328 331 330 332 334 332 332 333 333 331 332 333 333 333 334 333 324 323 323 324 332 329 327 330 330 328 329
302 302 303 304 304 304 305 305 306 305 305 306 306 306 306 307 307 308 308 310 311 311 311 311 310 310 311 311 312 312 312 312 312 311 311 311 310 309 308 308 308 309 310 311 312 314 315 317 320 325 327 328 323 320 306 300 303 315 319 323 328 333 330 333 333 333 332 332 333 335 335 332 325 323 318 311 308 308 314 329 331 330 327 328 328
304 303 303 303 303 304 304 304 305 305 305 306 307 306 307 307 307 307 307 309 310 310 310 310 309 310 310 310 310 311 311 311 311 311 311 310 309 309 308 307 307 308 308 309 310 310 311 312 313 318 322 312 305 301 295 293 293 296 308 319 324 328 330 331 331 333 332 332 334 333 335 332 329 324 322 304 302 300 302 307 312 316 323 330 328
301 303 305 302 302 303 303 303 304 305 305 305 306 306 306 306 306 306 307 308 309 309 309 309 309 309 309 309 309 309 309 310 310 309 309 309 309 309 307 306 306 306 307 308 307 308 309 309 310 312 316 310 304 295 293 293 293 293 297 308 320 326 327 330 332 331 331 331 331 332 332 334 334 334 334 326 311 301 299 299 298 300 305 310 315
301 302 301 301 302 302 303 303 304 304 304 306 307 306 305 306 306 306 307 307 307 308 308 308 308 308 308 308 308 308 308 308 309 309 309 309 308 307 307 306 305 306 305 305 305 306 306 308 307 307 309 311 303 294 292 292 292 292 293 299 315 325 329 328 329 331 329 330 331 331 331 332 332 326 330 332 329 316 300 297 298 298 297 302 306
301 302 301 301 302 302 303 303 303 304 305 306 307 307 307 309 308 306 306 306 306 306 307 307 307 307 307 307 307 307 307 307 308 308 308 308 307 306 307 307 307 306 303 303 304 304 304 304 305 305 306 309 302 295 292 292 292 292 292 295 311 320 327 329 329 329 330 330 332 331 331 331 333 331 331 332 332 328 322 320 321 325 324 309 301
301 301 301 301 301 302 303 302 303 304 305 305 305 306 306 307 307 306 306 306 306 306 306 306 306 306 307 307 306 306 306 306 307 307 307 307 306 306 306 306 306 306 304 302 302 302 302 302 303 303 303 305 303 294 292 291 291 291 291 296 312 319 326 329 330 330 327 330 331 331 331 331 332 331 332 328 331 329 327 326 326 328 325 324 325
300 300 302 303 304 302 302 302 304 304 304 304 305 306 305 305 306 305 305 305 305 304 305 305 304 305 305 306 306 306 305 306 306 306 305 305 305 306 305 305 306 306 306 305 304 303 301 301 302 301 301 300 302 294 292 292 291 291 291 308 316 319 323 327 328 330 329 328 328 330 331 333 329 330 319 311 319 328 328 326 326 327 323 317 310
302 303 302 303 304 302 302 303 304 304 304 304 305 306 305 305 304 305 304 304 304 303 303 304 304 304 305 306 305 305 305 305 305 304 304 304 305 305 305 306 305 305 305 304 304 304 303 301 301 301 299 299 299 296 292 291 291 291 294 305 313 318 321 324 327 327 329 328 323 324 325 330 329 329 312 306 307 311 328 326 325 322 318 317 311
302 302 302 304 303 303 303 303 303 303 304 305 305 305 305 304 304 304 304 303 303 302 303 303 304 304 305 305 305 305 305 305 305 304 303 304 305 305 305 305 304 304 304 304 304 304 304 303 301 300 300 299 298 298 293 291 291 291 293 302 310 315 317 321 325 328 328 327 312 303 309 318 325 326 301 305 305 316 325 325 324 321 318 315 311
301 301 301 301 301 302 302 303 303 302 303 304 305 304 304 303 303 303 303 302 302 302 303 303 304 304 305 305 305 305 304 304 304 304 304 304 304 304 304 305 304 304 304 305 304 304 304 303 303 301 301 298 298 297 293 291 291 291 293 299 308 312 313 315 321 324 327 326 317 306 298 298 312 315 297 301 301 314 327 325 323 321 317 314 312
300 301 301 301 302 302 301 301 301 302 304 303 304 303 303 302 302 303 302 302 302 302 303 303 303 304 304 305 305 304 304 304 304 304 305 304 305 304 304 304 304 303 303 303 303 303 303 303 303 302 301 300 297 297 295 291 291 291 291 297 308 310 310 309 310 310 319 314 311 309 301 292 291 291 293 294 297 297 317 324 323 320 317 312 313
299 299 300 300 300 300 300 300 301 302 303 303 303 303 302 302 302 302 301 302 302 303 303 303 303 304 304 304 304 304 304 304 304 304 304 304 304 304 304 304 303 303 302 302 301 301 301 301 303 303 302 301 299 297 296 292 291 291 291 292 303 304 306 309 307 305 304 304 303 302 302 293 290 291 292 292 293 293 295 322 323 321 318 313 309
298 299 300 300 300 301 301 301 302 302 303 303 302 302 301 302 301 301 301 302 303 303 303 303 302 303 303 303 303 304 303 304 304 304 303 303 303 304 303 303 303 302 302 301 301 300 300 300 301 301 302 301 301 298 297 294 292 291 291 291 294 297 297 304 302 301 301 300 298 297 296 292 290 291 291 293 294 296 298 314 311 298 297 300 314
298 298 298 300 300 300 300 301 302 303 303 303 303 301 302 301 300 301 302 303 303 303 302 303 302 302 303 303 303 304 303 304 303 303 303 302 302 302 303 303 302 302 302 301 300 300 299 298 298 299 300 300 300 300 295 297 294 292 291 291 290 292 292 298 297 295 295 296 296 295 294 291 290 290 290 291 292 294 297 298 294 296 297 298 304
297 297 298 299 299 300 300 301 302 302 303 303 302 301 301 300 300 302 302 303 303 303 302 302 302 302 302 302 302 303 303 303 303 303 302 302 301 301 300 301 301 300 299 299 299 299 298 297 297 297 298 298 298 298 296 294 296 293 292 291 291 290 290 294 294 293 293 294 294 293 292 290 291 291 291 291 290 291 292 291 291 293 296 299 313
297 297 299 299 299 300 300 300 301 302 302 302 302 301 301 300 301 302 302 302 302 302 302 302 301 301 302 302 302 302 302 302 302 302 301 301 301 300 299 300 300 299 299 298 298 298 297 297 296 296 296 297 297 297 297 295 294 294 293 292 292 291 291 291 294 294 293 293 291 290 290 291 291 291 292 292 292 291 290 291 292 293 298 307 309
299 299 299 299 300 300 299 299 299 300 300 301 301 301 300 301 302 302 302 301 301 301 301 301 301 301 301 301 301 301 302 302 302 302 301 300 300 300 299 298 298 298 298 298 297 296 297 297 296 296 296 296 296 296 295 296 296 296 295 293 292 292 293 293 294 294 291 291 291 291 291 292 292 293 295 294 293 294 291 292 292 295 299 298 299
298 299 299 299 299 297 297 298 298 299 300 300 300 301 301 302 302 302 302 302 301 301 301 301 300 301 301 301 301 300 301 302 302 301 300 300 300 299 299 297 297 297 297 297 296 296 296 296 296 296 296 296 296 295 295 294 295 296 297 297 296 296 294 294 296 297 295 296 294 294 293 291 292 291 291 292 292 293 294 295 296 297 297 297 297
299 299 299 299 298 297 298 298 298 299 300 299 299 299 301 302 302 303 302 301 301 300 300 300 300 300 300 300 300 294 297 300 300 302 300 301 300 300 299 298 297 297 296 296 296 296 295 297 298 297 296 295 295 295 294 293 293 293 296 297 296 295 295 294 294 295 296 296 296 292 293 294 293 293 294 293 293 293 292 292 295 295 295 295 295
298 299 299 299 298 298 298 298 298 299 300 300 300 300 301 302 302 302 302 301 300 299 301 301 300 299 300 300 300 300 300 300 299 301 301 301 300 300 299 299 299 298 297 297 297 295 296 298 299 298 296 295 294 294 294 289 290 289 289 293 294 294 294 294 292 290 295 294 293 292 291 291 291 288 289 290 291 291 290 291 291 293 293 293 293
299 299 299 299 299 299 299 299 299 300 300 300 301 301 302 302 302 302 302 301 300 300 300 300 300 299 299 300 300 300 300 299 299 299 301 299 290 289 294 300 298 290 286 288 290 295 296 296 296 297 297 294 293 293 288 287 288 288 289 288 288 289 289 292 290 290 292 291 290 289 289 289 289 288 287 287 287 288 288 288 288 288 290 290 291
299 299 298 298 299 299 299 298 299 300 301 301 301 301 302 302 303 302 302 302 301 299 299 299 299 299 297 299 300 300 300 300 299 299 299 298 301 296 288 288 290 291 290 288 288 288 288 288 294 295 294 289 289 288 288 288 288 288 288 288 288 288 289 289 290 291 290 289 288 288 287 287 287 288 287 286 286 287 287 287 287 288 288 287 287
Wind_Speed
9 9 8 9 7 6 7 6 5 5 4 4 5 5 3 3 2 1 1 2 2 3 3 4 4 3 3 3 4 4 5 5 4 5 6 6 6 6 5 6 6 6 6 8 7 6 6 6 8 6 5 7 7 6 6 6 4 5 5 4 6 8 4 3 4 2 6 5 5 1 3 3 3 5 8 7 6 4 4 5 6 5 5 7 7
12 11 11 8 7 7 7 7 7 7 5 5 6 6 4 3 2 3 1 0 1 3 3 4 4 3 2 3 3 4 4 5 6 6 6 7 8 7 7 7 7 7 7 8 8 8 7 7 7 8 8 8 7 7 8 6 4 4 6 5 5 8 6 7 7 5 9 8 6 5 2 3 6 6 8 7 4 4 3 7 6 6 6 5 4
12 14 13 13 15 14 10 10 10 11 10 10 7 4 4 3 1 1 1 1 1 3 1 2 3 3 1 3 2 4 5 5 8 5 5 6 7 7 7 7 8 8 9 9 8 9 9 8 7 7 8 7 5 7 8 8 7 7 8 8 4 3 3 4 8 9 9 8 8 5 7 4 5 6 7 8 5 5 4 5 6 4 9 7 5
13 12 11 12 12 12 11 10 9 9 10 10 9 9 7 5 3 2 1 2 1 2 4 3 4 3 4 3 4 3 5 5 7 6 8 7 8 7 8 8 9 9 9 9 8 9 9 9 8 7 7 7 7 6 7 8 8 8 7 8 8 7 6 7 7 10 4 3 5 6 5 6 5 8 7 7 7 7 7 5 5 6 8 6 8
11 12 12 11 12 12 11 11 10 10 10 9 9 8 6 7 5 3 1 2 2 4 5 4 3 3 3 4 5 4 6 7 5 7 7 7 6 6 8 9 8 8 9 10 10 9 9 9 9 9 9 8 8 9 8 7 8 9 10 8 9 9 9 7 7 6 5 6 4 2 2 5 6 4 8 8 6 6 10 6 6 3 6 3 4
12 11 10 10 10 11 11 12 11 9 9 8 8 9 10 9 9 8 4 3 2 5 5 4 4 4 4 4 4 3 5 3 4 4 8 8 7 5 8 9 9 8 9 10 10 9 9 9 10 10 9 9 9 10 8 6 9 10 10 8 11 9 7 6 6 4 7 8 7 6 4 2 3 2 5 5 4 7 4 5 5 8 7 3 3
11 10 10 10 10 10 10 10 10 9 9 8 8 8 9 9 10 10 6 5 6 6 7 5 4 4 4 5 4 4 4 5 5 6 8 7 6 7 7 8 9 9 10 10 10 10 9 8 9 10 10 10 10 9 9 9 8 10 9 7 7 8 8 8 8 8 7 7 10 7 4 2 3 4 5 1 4 5 5 5 9 9 4 4 5
9 9 10 10 10 9 10 9 8 8 8 8 7 8 9 8 8 8 7 7 7 9 9 8 7 4 5 6 5 6 5 8 7 8 7 6 7 8 7 8 8 9 9 10 10 10 10 10 10 9 10 10 8 10 10 9 9 10 9 9 6 6 8 8 8 7 9 9 8 8 7 4 4 2 2 3 1 3 7 5 2 7 5 6 7
9 9 10 10 9 9 9 9 8 8 8 8 8 7 7 7 7 7 7 7 7 8 9 9 9 9 7 5 5 4 8 9 6 6 7 8 8 7 8 8 8 9 10 10 10 11 10 10 10 10 10 10 8 10 9 10 10 9 9 10 10 9 8 8 7 7 7 9 7 6 5 5 4 4 3 4 2 5 6 7 8 4 6 8 7
8 9 9 9 9 8 8 8 8 8 7 7 7 6 6 6 7 7 8 7 7 7 7 9 10 8 8 8 6 5 6 6 5 4 7 7 9 9 8 7 8 8 9 10 9 10 10 10 10 10 10 10 9 10 10 9 10 10 10 11 11 12 11 9 9 7 10 5 4 5 6 5 4 5 4 4 5 6 7 5 7 10 10 8 7
7 8 9 9 8 8 7 8 8 8 7 7 7 7 6 7 7 7 7 7 7 8 8 8 8 8 8 9 10 9 8 7 7 7 5 6 8 8 7 7 7 8 8 8 9 10 10 11 10 10 10 9 10 10 9 9 9 11 11 12 13 12 10 10 9 9 5 4 6 5 9 8 7 7 6 7 7 6 6 8 9 11 11 8 9
7 7 8 8 8 8 7 8 8 8 8 8 7 7 6 6 7 8 8 8 8 8 8 8 7 8 8 9 10 11 10 7 7 8 7 6 8 9 9 7 7 8 8 9 9 9 9 9 10 10 9 9 10 9 9 9 8 9 9 9 8 11 10 9 9 9 9 6 7 9 6 6 6 5 5 6 6 6 7 7 5 5 8 4 6
7 7 7 7 7 7 8 8 7 8 8 8 8 7 7 7 8 8 8 8 8 8 8 9 9 8 8 9 9 9 10 10 10 9 6 6 8 9 8 8 8 7 8 9 9 9 9 9 9 9 9 9 10 10 9 9 9 9 10 11 12 13 11 10 8 9 8 7 9 8 6 5 5 6 7 4 4 3 6 5 4 2 5 6 9
7 7 7 7 7 7 7 8 8 7 8 8 8 7 7 7 8 9 8 9 9 8 8 8 8 8 9 9 9 8 9 9 9 8 9 9 8 9 9 9 8 6 8 12 7 10 11 10 10 10 11 9 10 10 9 10 9 9 11 11 12 11 10 10 8 7 7 9 5 6 8 7 6 6 8 5 5 5 6 7 4 3 3 4 2
6 7 8 9 9 9 8 8 8 8 8 8 8 8 8 8 9 10 9 9 9 9 8 9 8 8 8 8 8 9 9 9 9 8 8 8 9 10 10 9 9 8 9 9 9 11 9 10 11 10 10 10 9 10 9 10 10 10 9 12 11 10 11 10 10 11 10 7 7 5 5 6 5 8 6 8 9 9 9 7 5 5 4 7 8
7 8 9 9 9 8 8 8 9 9 10 9 9 8 8 8 9 10 10 9 9 10 9 9 9 8 9 9 10 10 9 9 9 8 9 9 9 9 10 10 9 9 9 10 8 10 10 10 10 10 7 5 9 12 9 8 11 10 10 9 11 9 11 13 10 10 9 10 8 6 8 7 7 7 8 10 9 7 6 5 5 5 6 8 8
7 7 8 9 9 9 8 9 8 9 8 9 9 8 8 8 8 8 9 9 10 9 9 9 9 9 9 9 9 9 9 10 10 12 12 11 11 10 9 11 11 10 9 8 6 9 11 10 9 8 8 9 12 10 10 10 9 11 11 11 11 10 10 11 9 7 8 11 9 12 8 6 7 8 10 9 8 7 6 6 6 6 6 6 7
8 8 8 8 9 9 8 8 9 9 8 8 8 8 8 7 9 9 10 11 11 10 9 8 9 9 9 10 10 10 9 9 10 11 12 11 11 11 10 10 10 10 9 8 6 6 12 12 10 8 8 9 10 11 12 11 12 11 11 11 10 11 10 9 8 8 8 7 8 7 6 7 9 8 8 8 7 6 6 6 7 7 8 9 7
7 7 8 8 8 8 8 9 9 9 9 8 8 8 8 8 9 8 9 11 11 9 9 9 9 7 7 10 10 10 10 10 10 10 11 12 12 12 12 11 10 10 10 9 8 6 7 12 11 11 9 11 10 10 12 9 8 7 9 8 9 10 10 10 9 10 9 9 8 8 7 9 8 8 8 6 5 5 7 8 7 9 8 8 6
7 7 8 8 8 9 9 9 9 10 9 8 9 8 9 8 9 11 12 11 11 11 10 10 10 9 10 10 10 10 10 10 11 11 11 11 12 12 13 13 11 11 11 11 9 9 9 11 12 10 8 12 8 11 8 9 8 7 9 9 10 12 11 10 8 9 7 9 9 10 11 9 8 8 7 6 7 8 9 9 11 10 5 4 5
7 7 7 8 8 9 9 9 9 9 9 9 9 9 9 9 10 9 11 11 11 11 10 10 10 11 12 12 11 11 12 11 12 12 12 12 12 13 12 13 13 12 10 10 7 9 12 11 11 11 10 10 11 11 8 6 4 5 11 10 11 11 11 9 9 9 11 8 10 11 11 11 10 9 7 6 8 10 10 10 9 8 9 10 7
8 8 9 8 8 9 9 9 9 9 9 10 10 10 11 11 10 12 11 11 11 11 10 10 10 11 13 12 12 11 11 12 13 12 12 12 13 13 14 14 14 13 12 10 9 8 10 13 12 8 11 11 9 11 9 7 7 8 13 9 11 10 11 11 10 11 11 9 9 10 10 9 10 10 7 10 11 10 10 10 9 8 6 7 11
9 9 8 9 9 9 9 10 11 11 11 11 10 11 11 11 10 10 12 12 11 11 12 12 11 12 13 13 12 12 12 13 14 12 13 14 13 13 14 14 13 13 11 10 10 9 9 9 7 9 12 7 7 10 8 8 8 8 13 13 9 8 10 10 11 11 11 10 9 9 9 8 8 9 8 10 10 12 11 11 12 9 8 9 9
10 9 9 9 9 9 10 11 11 11 11 12 11 11 11 12 13 12 12 12 12 11 11 12 12 13 13 14 14 13 14 14 14 13 14 15 14 14 14 15 15 14 13 10 9 8 7 8 7 8 6 5 8 8 9 9 10 13 12 11 11 10 11 11 11 11 11 10 11 8 8 10 9 9 11 10 10 10 9 8 8 9 10 9 9
10 10 10 10 10 11 11 11 11 10 10 11 11 11 11 11 11 12 12 12 12 12 12 13 13 14 14 14 14 13 13 14 14 13 15 15 15 14 14 16 16 14 15 12 9 7 8 10 8 8 7 8 9 9 8 9 8 7 9 10 10 12 10 10 10 10 9 9 8 10 9 7 9 11 9 10 11 11 9 9 9 8 8 6 5
10 10 10 11 10 10 11 11 10 11 10 11 11 11 11 11 12 11 11 12 12 12 12 13 13 13 13 15 14 14 14 15 15 14 15 14 13 14 15 14 16 17 14 12 13 9 8 8 9 7 5 5 6 7 8 10 9 8 9 14 9 9 10 10 10 10 11 6 7 8 9 10 8 10 8 9 9 12 11 11 12 10 7 7 8
10 10 10 10 11 12 12 12 11 11 11 10 11 12 12 12 12 12 12 12 12 12 13 13 13 13 13 14 14 14 14 14 14 13 13 13 13 14 15 15 14 15 16 14 11 13 9 6 6 6 6 5 5 4 5 7 12 12 8 10 9 7 8 9 9 10 10 10 10 9 11 10 11 10 10 10 9 9 9 9 7 5 3 4 8
10 10 11 11 11 11 11 12 12 12 11 11 11 12 12 12 12 11 12 11 10 12 13 13 13 13 14 15 14 14 14 14 14 14 13 14 14 13 14 14 14 14 14 16 17 15 12 5 6 6 6 4 6 6 7 7 9 8 8 12 9 11 11 9 9 9 10 9 9 9 10 10 10 9 10 10 8 7 5 6 2 5 4 5 6
11 11 11 11 11 10 11 11 11 12 12 12 11 11 12 12 12 12 11 12 12 12 13 13 13 14 14 14 13 13 13 15 15 14 14 15 14 13 13 14 14 14 12 14 14 17 16 14 9 7 5 2 3 4 5 6 8 10 13 9 9 9 9 9 10 10 8 8 9 10 11 10 10 8 7 5 6 3 5 7 6 8 5 5 8
11 11 11 11 11 11 11 11 12 13 13 12 11 12 12 13 13 12 12 12 12 12 13 13 14 14 14 14 14 14 14 15 15 15 15 15 14 14 14 14 14 14 14 14 15 14 14 14 14 11 6 4 8 8 14 16 9 6 7 8 11 6 8 10 10 10 10 11 11 9 9 4 8 8 8 7 6 10 8 5 6 10 10 8 8
11 12 10 11 11 11 11 11 12 12 12 9 9 12 12 12 13 13 13 12 12 12 12 13 14 14 14 14 14 14 14 15 15 15 15 15 16 14 14 14 13 14 14 14 13 14 13 14 14 13 9 11 9 10 19 19 20 18 10 7 10 9 11 10 10 9 10 10 9 9 7 8 8 7 7 10 12 13 13 13 11 7 7 10 10
9 6 10 12 10 11 11 11 11 12 11 12 13 11 11 13 13 13 13 12 12 12 13 14 14 14 15 15 14 15 15 15 15 16 15 15 15 15 16 15 15 15 14 13 13 13 12 13 13 13 10 9 10 18 21 21 20 19 10 8 8 7 10 10 8 10 10 9 9 9 7 7 8 9 8 8 9 12 12 12 10 10 8 5 4
8 9 10 10 10 10 11 11 11 11 10 11 11 12 13 11 11 13 12 12 12 13 13 13 14 14 14 14 14 14 14 15 15 15 15 14 15 16 16 16 17 14 13 15 14 13 11 12 11 12 13 9 8 19 21 21 21 20 17 10 7 9 7 9 10 9 11 9 9 8 8 7 7 9 9 10 9 9 10 10 10 8 7 6 7
8 9 10 9 9 9 10 11 11 10 10 10 10 10 9 9 11 11 12 11 12 13 13 13 13 14 14 14 14 14 14 15 14 14 14 14 15 16 15 14 14 15 14 13 14 14 13 13 12 12 11 11 11 21 22 22 20 20 19 13 9 10 9 8 9 11 9 8 9 8 7 8 7 9 10 10 9 10 8 8 8 7 6 4 2
8 9 9 9 10 10 10 10 10 9 9 9 9 9 8 10 9 10 10 11 11 12 13 12 13 13 13 13 14 14 14 14 15 15 14 15 15 15 15 14 14 15 15 14 12 13 12 13 13 11 11 11 9 20 22 23 21 20 21 15 8 9 10 10 8 7 11 10 5 6 6 7 6 8 8 9 9 10 9 9 10 10 9 8 5
8 7 6 7 7 9 9 10 9 9 9 9 9 9 9 9 10 10 11 12 12 13 12 13 13 13 14 14 14 14 14 14 14 14 14 15 15 14 15 13 13 14 13 13 12 11 12 13 13 13 11 11 11 16 22 23 23 21 21 11 9 9 10 10 10 5 7 7 6 7 5 4 5 7 6 8 2 7 10 10 10 8 7 8 6
6 6 7 7 9 10 8 8 9 9 9 9 9 9 9 9 10 10 10 11 11 11 12 13 13 14 14 14 14 14 14 14 14 14 14 14 15 15 14 12 13 13 13 14 13 13 12 13 13 12 13 10 10 15 21 22 22 21 16 10 10 9 9 11 8 9 2 2 5 2 2 4 4 6 7 9 5 6 8 9 10 10 6 6 5
6 7 6 7 8 7 7 8 9 9 9 9 9 9 9 10 10 10 10 11 12 13 13 12 13 13 14 14 14 14 14 14 14 14 14 13 13 12 13 12 13 13 13 13 13 13 12 12 12 12 12 10 11 15 22 23 21 21 16 11 9 9 10 10 10 7 4 5 6 11 10 6 3 2 9 12 7 4 8 8 9 8 8 7 6
6 6 7 7 6 6 7 8 9 9 10 9 9 10 10 10 10 10 11 11 11 11 11 12 12 12 13 13 13 13 14 14 14 14 13 13 13 12 12 12 12 12 12 12 13 12 13 12 13 12 12 13 12 14 21 23 22 21 17 10 9 8 9 10 10 9 4 2 5 9 15 13 7 5 8 10 7 2 6 7 8 9 9 8 8
7 5 6 5 4 6 7 8 9 9 9 10 9 9 10 10 10 10 11 11 11 11 12 11 11 11 11 12 12 13 13 13 14 13 13 13 12 12 13 12 12 11 12 12 12 12 13 12 13 14 14 14 16 15 18 23 23 22 20 14 8 7 7 9 9 9 7 7 8 8 12 17 14 11 10 10 7 6 3 6 8 8 8 9 9
6 5 4 5 6 6 7 8 8 8 8 9 9 9 9 9 10 10 10 10 10 10 10 10 10 10 11 12 12 12 13 13 13 14 13 13 13 13 13 13 12 12 13 12 14 13 12 13 12 13 14 13 12 18 19 23 23 23 23 18 9 10 10 7 6 8 8 8 8 9 7 14 14 13 12 11 11 9 7 5 9 8 7 11 11
6 3 3 6 6 6 6 7 7 7 8 8 8 9 9 9 9 10 11 10 10 11 10 10 11 11 11 11 12 12 11 11 12 12 14 13 13 13 13 13 12 13 14 14 14 13 13 12 12 13 14 14 14 16 17 19 21 23 23 24 13 12 12 7 7 8 8 7 7 6 6 10 15 15 15 14 15 14 14 7 10 17 17 13 10
6 6 5 3 6 6 6 6 6 6 7 7 8 9 9 8 9 10 10 9 9 10 10 11 11 11 11 11 10 12 11 10 12 13 13 14 14 14 14 14 14 13 14 14 14 14 13 13 12 11 12 14 14 12 16 17 19 20 21 22 23 16 18 11 9 10 10 8 7 7 7 12 17 17 19 19 17 17 14 9 13 16 15 13 11
7 7 6 6 6 6 6 6 6 6 6 6 7 8 8 8 9 9 8 9 9 9 10 10 10 11 11 11 11 11 11 11 12 13 14 13 14 14 14 13 14 13 12 13 13 12 13 13 14 12 11 12 13 13 13 16 15 18 18 19 19 21 19 11 10 8 9 8 7 7 8 14 15 15 18 18 19 18 13 17 16 13 4 6 7
7 6 6 6 7 7 6 7 6 6 6 6 6 7 7 9 8 8 9 10 10 10 10 10 10 10 10 10 10 10 10 11 12 12 13 13 13 14 13 14 13 13 13 13 12 12 12 13 12 12 11 10 11 12 12 14 17 17 18 19 18 18 17 16 12 10 9 9 10 12 16 17 16 14 16 16 16 17 20 20 20 18 13 5 5
7 6 7 8 7 7 7 7 7 6 5 5 5 5 6 7 8 9 9 9 10 10 10 10 10 9 10 11 11 10 10 10 10 11 12 12 12 12 13 14 14 13 13 13 13 12 12 11 12 11 11 11 11 11 11 11 12 14 14 17 17 18 18 16 13 10 13 14 13 13 16 18 18 14 12 11 10 12 17 19 19 17 10 9 9
7 6 5 6 6 7 7 6 6 6 6 6 6 5 6 5 7 8 9 9 9 10 9 9 10 11 10 10 11 10 9 9 9 8 10 11 11 11 11 11 11 12 13 13 12 13 12 11 11 11 11 10 10 10 11 11 11 10 11 10 11 11 14 14 11 10 10 9 11 11 11 14 14 17 15 14 14 13 13 13 12 10 10 10 10
7 6 6 7 7 7 7 6 6 6 6 6 6 6 6 5 6 8 8 7 8 8 8 9 11 10 9 10 10 6 7 8 8 7 8 9 10 10 10 8 9 10 11 12 12 13 12 12 11 10 11 10 10 10 10 9 9 10 9 9 8 9 8 7 8 8 7 7 6 8 11 10 12 12 11 10 11 11 10 10 9 8 9 10 12
7 6 6 7 7 7 6 6 6 6 6 6 6 5 5 4 6 7 8 9 8 8 9 9 9 9 9 9 9 9 9 8 9 6 5 5 6 8 10 7 7 7 7 8 10 10 11 12 11 11 12 10 9 9 8 8 6 9 8 8 8 7 7 7 8 10 6 8 9 11 11 11 11 10 9 9 9 9 10 10 10 10 9 9 9
7 6 7 7 6 6 6 6 6 6 6 6 6 5 5 5 5 7 8 8 8 8 8 8 8 8 9 9 9 9 10 10 10 8 4 4 6 7 6 6 5 2 2 4 6 7 7 10 11 10 8 9 7 6 10 11 10 10 10 11 11 11 10 10 12 13 10 8 9 8 8 8 9 9 9 8 8 8 9 9 9 10 10 10 10
7 7 6 6 6 6 6 7 7 6 6 6 6 5 5 4 5 7 7 9 8 7 7 8 8 8 8 9 9 9 9 9 9 10 10 6 4 5 8 9 8 4 2 2 4 2 4 8 8 9 4 6 7 8 12 12 10 9 9 10 10 10 10 10 11 8 8 7 7 7 7 7 7 7 7 8 7 7 6 6 7 8 8 9 8
Wind_Direction
69 60 69 83 89 92 94 95 106 111 123 131 126 129 143 138 130 137 351 246 246 230 223 227 224 218 221 224 257 292 296 281 269 270 276 276 283 281 266 261 268 256 242 244 239 229 230 226 227 223 240 236 219 221 220 222 219 212 233 201 181 216 191 207 264 250 253 232 182 129 4 314 225 217 218 216 216 221 222 239 227 198 202 168 215
52 47 39 59 87 95 89 90 88 92 96 125 122 117 120 123 120 97 119 228 234 237 256 249 250 243 255 257 266 285 283 291 289 260 263 273 275 272 264 260 258 254 242 244 242 236 234 232 234 225 221 226 221 225 226 208 207 223 214 203 177 206 195 163 204 208 220 215 197 185 226 316 269 259 242 223 263 275 311 263 213 207 203 198 233
59 51 47 44 41 39 42 49 47 42 43 42 53 92 113 121 110 108 93 267 350 334 285 267 277 290 224 297 285 303 303 299 279 317 284 272 266 264 262 253 250 249 239 234 246 246 239 232 230 231 218 215 220 234 218 210 209 220 220 208 170 189 190 170 202 216 225 206 207 200 212 209 223 230 238 243 235 258 283 306 268 206 211 209 209
56 49 43 39 40 41 42 41 43 46 42 36 27 32 40 35 15 331 345 301 323 322 320 337 332 321 304 246 263 231 275 270 272 269 259 257 263 260 261 263 258 258 257 248 246 248 243 243 236 228 222 211 219 216 212 212 212 219 201 204 198 200 200 208 193 214 223 113 197 221 210 204 225 222 215 218 226 236 241 220 250 214 224 210 215
58 51 43 38 39 39 38 36 37 38 31 30 28 22 12 11 26 56 327 273 254 257 274 304 312 282 244 252 253 229 246 252 239 262 253 261 261 263 258 260 259 257 261 260 256 256 254 251 248 239 231 216 217 222 218 210 211 209 200 202 208 206 205 209 203 217 193 174 178 165 182 212 220 233 197 219 198 218 226 192 236 272 271 307 293
59 54 48 42 44 40 33 33 34 32 29 21 20 15 9 7 360 348 347 344 300 263 274 284 282 270 264 245 248 275 280 290 288 298 281 253 256 259 256 261 260 249 244 249 253 258 258 256 253 249 236 220 216 221 216 203 223 204 202 208 210 202 206 205 217 223 220 193 203 218 265 201 198 170 159 223 198 224 228 166 222 227 235 257 280
62 57 50 47 43 44 38 35 31 29 24 22 23 20 17 8 360 357 349 341 338 341 334 325 303 276 261 268 262 257 270 281 272 265 249 268 267 258 257 254 258 256 248 251 254 256 254 249 246 244 247 238 222 218 216 212 214 220 203 202 208 201 203 213 197 210 205 223 215 217 210 98 121 153 206 111 229 218 218 218 215 211 199 231 248
65 58 55 52 48 44 43 39 34 30 26 27 27 22 18 14 4 357 354 349 355 349 339 330 313 294 270 268 263 275 262 270 257 261 281 273 262 257 258 260 255 255 253 246 250 250 248 247 244 244 244 241 227 222 218 217 218 221 200 196 202 194 198 204 205 210 209 208 201 204 205 187 182 181 210 200 344 239 215 197 219 228 194 227 228
63 60 56 51 48 45 43 41 37 32 28 26 25 20 17 8 4 2 0 353 351 346 337 335 331 322 308 274 263 263 267 257 251 281 286 279 266 256 256 260 256 251 253 252 243 244 245 245 246 245 242 241 232 235 224 216 212 207 199 198 205 202 202 209 214 214 219 225 191 208 193 188 201 216 193 138 199 235 233 203 191 214 232 224 228
67 66 66 59 51 49 47 44 41 37 32 29 27 29 22 17 13 11 6 354 348 340 341 338 331 324 315 310 293 273 269 277 266 253 259 275 269 271 261 253 257 254 248 252 250 243 243 245 245 246 244 239 234 241 232 224 215 205 194 200 195 203 207 206 214 217 228 211 164 188 204 201 222 235 225 195 220 237 248 214 194 183 200 217 215
62 63 61 60 55 50 44 44 38 36 33 30 29 24 21 19 11 7 12 3 355 352 344 335 327 326 316 315 307 304 297 285 281 266 269 281 281 270 264 261 260 255 253 247 247 243 243 242 246 244 241 241 237 235 230 223 221 212 200 190 193 199 206 205 209 219 213 175 203 206 211 200 196 205 210 201 201 212 215 242 211 200 194 193 203
64 56 52 50 50 41 38 37 34 29 26 24 25 20 14 16 8 4 14 5 2 358 349 345 334 330 329 325 314 315 315 307 288 288 269 271 276 281 272 256 254 255 251 254 252 245 239 238 237 241 243 239 233 230 227 218 215 209 198 186 195 205 206 206 210 215 212 194 211 219 200 190 200 212 227 205 195 206 227 223 216 205 209 205 181
61 58 54 47 40 37 30 29 28 26 21 16 18 11 8 9 8 2 8 1 360 0 353 349 343 339 330 324 325 320 317 316 312 301 301 271 259 266 275 271 264 267 266 261 257 256 248 241 239 234 239 232 232 226 224 210 205 199 196 189 195 199 202 204 204 206 201 206 210 208 201 192 209 219 230 213 178 196 212 233 239 244 213 196 205
58 49 48 48 41 35 32 26 27 25 20 18 13 10 7 2 3 359 3 357 351 356 353 352 346 340 338 332 330 324 321 314 305 305 308 307 298 286 280 278 273 259 276 270 246 259 250 247 242 237 238 237 230 227 217 218 201 214 194 198 192 198 202 204 206 201 208 214 211 194 204 193 206 226 229 198 191 195 217 212 189 218 238 211 185
58 51 46 42 40 37 32 28 26 23 21 19 15 10 7 6 5 359 1 1 353 355 351 350 346 347 340 334 330 333 329 325 320 311 300 297 299 299 292 284 278 273 264 266 284 266 264 254 249 248 242 246 236 226 214 213 206 213 204 196 190 194 197 199 199 199 203 196 209 211 207 192 205 220 221 228 202 213 220 210 185 193 214 215 204
53 52 48 43 38 35 34 28 26 22 21 20 19 15 11 8 5 3 3 359 356 355 354 345 345 341 339 342 341 339 330 324 313 310 309 301 293 284 282 281 278 275 276 280 298 291 274 269 261 250 252 245 246 231 214 224 215 212 210 199 201 197 197 202 204 197 192 198 213 210 212 211 210 211 217 222 215 207 202 198 193 173 187 207 200
59 54 50 46 41 38 36 33 32 29 25 23 26 20 16 13 12 11 9 9 6 357 354 347 344 339 337 340 337 332 328 327 322 317 315 312 301 289 280 279 280 274 271 269 272 284 274 262 262 266 257 236 229 222 222 215 211 213 215 202 201 196 201 205 205 206 200 192 205 203 199 215 224 213 223 219 214 207 207 200 201 196 179 211 202
61 57 56 52 48 43 37 39 41 37 29 29 25 24 21 16 12 16 15 11 11 6 359 353 349 343 342 339 334 328 327 327 323 322 317 309 304 300 294 285 279 274 272 273 263 270 283 263 248 245 252 242 237 227 227 216 215 211 212 209 201 197 197 198 201 208 210 211 194 175 197 218 217 219 220 226 219 195 192 206 218 204 188 209 196
62 58 54 48 47 46 40 39 41 36 36 30 27 21 20 19 17 6 27 16 10 6 5 2 356 352 342 336 332 332 334 334 331 324 320 310 302 300 296 296 293 281 271 268 265 242 260 279 266 242 238 246 231 233 229 226 211 230 228 214 204 198 198 200 198 207 210 206 192 196 206 221 211 216 219 210 209 209 203 208 212 218 196 202 187
64 57 53 51 49 44 43 38 36 36 32 28 26 23 20 16 16 10 13 20 16 7 8 4 3 357 346 340 339 336 338 337 334 330 320 311 306 307 306 300 296 288 281 279 271 260 249 258 259 252 242 226 217 233 245 235 219 227 232 217 210 203 204 204 199 199 200 197 195 203 209 207 209 213 208 207 214 219 223 211 208 211 153 206 176
64 58 53 50 47 44 44 41 36 36 32 29 24 22 19 16 18 22 21 11 14 6 5 12 4 358 352 348 343 340 340 340 339 334 327 324 324 315 307 308 304 295 286 280 276 273 273 266 258 254 242 231 209 223 235 247 258 237 245 232 211 204 207 203 205 211 214 195 206 211 203 201 202 207 204 205 211 215 218 231 227 208 185 175 171
71 64 58 51 47 47 43 41 41 36 31 26 27 24 21 20 15 13 21 18 11 8 4 9 11 0 357 355 349 344 344 341 341 337 335 334 327 322 313 307 307 304 304 306 308 296 282 271 277 295 262 216 199 216 224 225 211 215 236 223 227 217 215 210 206 214 211 206 210 209 205 197 208 204 196 221 212 217 218 214 213 218 201 167 181
68 66 59 57 53 47 44 41 40 38 32 27 27 25 21 17 18 24 17 15 11 8 4 5 4 8 2 358 356 349 348 347 344 344 341 335 329 323 319 311 306 304 306 305 299 294 293 295 293 255 256 205 222 227 229 237 228 224 235 227 223 225 219 214 212 216 220 214 205 210 194 196 208 199 199 223 217 218 218 220 217 208 213 180 167
76 69 62 56 53 46 43 40 38 35 33 29 27 28 24 20 15 16 16 15 12 6 2 6 8 5 6 2 359 355 351 350 348 347 344 338 334 329 325 319 311 305 305 303 299 298 287 279 274 279 289 291 240 235 230 234 231 232 230 226 222 214 219 220 216 214 220 218 210 203 205 201 196 198 205 208 212 214 218 221 216 220 212 180 171
76 69 63 58 51 46 41 39 36 33 34 31 30 27 25 24 15 15 16 15 11 6 7 6 6 4 5 3 2 359 354 351 351 348 348 345 341 336 332 327 320 317 318 317 305 285 287 285 274 266 243 241 252 251 260 250 249 248 256 251 223 215 214 218 217 217 218 218 215 213 200 203 199 207 202 213 213 211 220 221 215 218 204 167 125
79 72 64 56 50 47 44 38 36 34 29 30 29 28 25 25 22 15 14 14 13 9 8 7 7 6 4 3 3 359 357 354 350 349 348 348 343 340 338 335 336 332 328 330 320 296 278 260 255 256 254 234 251 252 238 253 253 244 238 240 221 220 215 214 215 220 216 213 226 210 209 202 190 206 206 212 212 214 219 221 223 212 205 176 143
75 69 65 61 53 48 42 37 37 34 29 27 28 25 25 23 22 20 12 18 15 9 10 9 10 9 5 4 3 2 357 358 354 351 349 350 348 344 343 343 344 349 345 339 330 326 300 279 277 272 256 247 242 244 260 265 270 258 257 249 232 235 219 215 217 214 218 207 212 217 213 199 199 203 209 212 210 219 221 229 225 217 138 122 153
77 69 63 58 55 49 42 39 35 34 28 27 27 26 25 21 21 21 13 15 18 13 12 13 12 8 7 3 5 4 358 2 358 355 356 352 351 350 347 345 349 350 356 355 346 333 337 328 312 299 305 339 332 313 306 307 288 281 244 256 234 220 219 209 214 216 217 219 208 213 223 213 217 199 204 203 200 212 215 208 281 107 169 171 148
74 69 60 54 52 47 45 39 36 31 30 27 24 24 23 22 22 20 18 14 18 16 16 14 14 11 7 5 5 3 2 3 2 359 356 358 357 355 351 351 352 354 353 354 357 351 346 354 353 341 328 333 294 308 320 326 311 307 283 255 261 236 216 221 214 214 211 218 229 222 222 218 207 193 160 103 116 127 215 190 145 128 149 183 182
85 68 55 53 47 45 43 40 33 31 28 26 24 23 21 20 19 19 18 16 15 19 17 15 16 13 9 6 6 5 4 5 4 3 1 359 360 357 359 355 356 356 356 358 357 355 353 354 348 345 334 32 27 13 358 347 338 306 312 318 272 262 253 221 217 220 214 214 216 215 214 177 101 131 133 138 136 97 79 120 158 175 172 186 176
59 68 69 53 46 41 39 36 33 30 22 15 44 29 19 20 18 17 17 16 16 19 19 18 18 13 11 8 7 5 4 6 5 5 5 3 1 2 2 360 358 360 360 2 3 2 357 355 351 347 23 47 39 10 0 358 344 345 352 337 316 284 235 232 227 216 221 215 217 214 209 140 141 121 132 128 108 106 110 126 146 159 175 169 171
71 58 54 56 44 41 36 33 32 27 23 14 18 28 28 18 17 17 16 14 17 19 21 19 16 15 13 10 8 7 4 5 3 5 7 5 5 4 4 4 3 2 4 5 9 7 1 2 356 351 3 47 28 10 4 358 348 342 359 338 308 290 297 279 245 234 225 219 218 213 208 203 204 209 191 144 114 110 119 121 124 125 141 162 185
71 63 61 51 43 40 36 32 30 29 17 17 26 13 24 19 30 19 15 18 15 19 22 19 16 17 16 11 9 8 7 4 4 3 4 8 6 6 6 5 6 6 1 6 9 8 10 5 3 355 351 17 38 12 5 357 347 341 343 340 311 300 293 295 285 262 242 225 216 209 205 206 210 183 209 197 167 123 122 127 125 116 100 140 161
68 58 54 51 43 37 37 32 29 29 23 20 14 26 19 11 27 27 21 24 20 23 20 20 18 16 15 12 10 10 7 7 5 3 5 7 8 8 7 5 5 7 8 5 5 10 11 9 7 3 353 354 21 8 2 355 347 340 337 336 306 297 286 275 285 284 270 241 222 210 205 206 209 186 200 201 193 157 147 152 158 166 164 111 90
76 71 67 54 40 38 37 31 28 27 28 22 19 22 16 23 25 23 12 17 21 27 22 20 18 16 14 13 11 12 8 6 6 5 5 7 7 8 8 7 6 8 10 10 7 6 8 9 10 6 1 356 20 10 360 352 347 342 335 320 300 290 279 273 273 282 295 298 285 233 213 221 208 206 193 195 190 171 169 179 188 190 167 171 163
78 77 64 65 72 54 33 37 28 27 31 26 24 16 27 25 21 24 20 18 15 27 19 20 16 13 13 12 12 13 10 8 9 6 6 6 6 6 7 6 6 8 11 11 13 20 10 9 9 12 5 7 357 13 3 353 346 343 337 319 308 294 282 275 271 271 270 282 319 325 282 257 254 207 206 185 182 185 168 184 187 175 142 95 76
85 73 68 57 43 56 41 40 39 31 31 35 27 27 31 25 29 27 24 25 21 18 19 18 16 14 13 12 11 8 10 14 12 9 7 5 3 5 7 4 4 7 7 10 11 13 15 13 11 12 13 2 351 7 2 354 348 344 342 325 316 301 292 279 274 277 289 330 22 16 10 276 264 301 147 146 137 224 177 196 174 154 121 124 102
88 83 76 55 58 61 57 42 38 39 37 39 36 29 35 34 30 26 24 25 20 21 19 18 19 16 12 14 11 9 8 5 14 16 10 9 7 6 3 1 3 3 6 7 5 11 13 17 17 15 13 4 357 3 4 356 352 348 343 326 317 312 307 304 284 278 246 144 80 39 19 4 321 195 165 146 165 239 216 188 168 165 160 146 123
75 72 73 76 73 51 51 49 41 41 38 40 45 39 33 36 31 29 24 25 25 21 17 15 18 17 16 19 14 11 7 7 9 12 11 12 13 11 7 5 5 4 4 2 2 7 11 13 15 14 27 22 6 6 6 1 358 355 351 331 321 320 323 328 309 281 256 82 81 52 33 16 0 122 168 149 147 230 217 184 175 166 178 156 140
112 97 89 84 84 86 60 49 44 41 40 38 35 42 41 32 29 28 27 23 16 18 21 12 9 18 18 19 17 14 12 10 12 8 10 10 10 13 11 13 13 13 10 8 5 2 5 12 16 13 16 20 20 16 12 7 5 4 359 346 330 344 339 344 346 358 24 52 36 35 28 14 14 29 41 45 48 27 345 190 172 184 169 135 137
100 100 128 97 78 55 56 50 45 40 41 38 36 35 36 35 29 23 27 24 21 16 20 17 12 22 17 22 20 16 15 15 11 13 13 10 8 10 8 9 12 14 15 13 13 9 6 6 9 19 15 20 30 19 17 15 11 11 11 7 353 2 345 349 360 13 31 31 30 26 29 10 16 25 34 31 35 28 348 233 180 187 146 131 137
88 80 79 89 74 70 66 60 45 39 39 41 37 36 34 32 25 25 23 16 17 16 12 16 15 17 22 19 21 19 12 14 14 8 15 17 12 12 12 7 7 8 13 16 14 13 12 8 9 8 14 13 19 31 15 19 15 17 18 20 16 6 359 353 18 26 21 33 38 40 33 20 33 33 33 38 41 47 43 45 85 94 101 114 122
113 104 78 84 94 77 63 53 50 41 40 37 42 36 33 28 22 27 24 10 20 19 12 20 17 15 19 22 21 22 14 11 15 15 11 17 16 10 12 12 10 6 9 14 14 15 12 10 10 10 10 12 10 15 19 11 13 16 22 25 24 21 15 22 25 33 25 19 23 34 40 55 59 51 46 38 40 42 49 43 69 88 99 118 136
84 79 79 72 78 81 75 61 53 40 32 38 36 41 29 28 22 21 23 16 16 20 22 16 17 21 17 24 16 19 18 15 16 14 17 16 19 15 11 12 12 9 8 6 14 13 13 13 9 9 13 14 12 11 12 8 9 12 17 22 27 28 25 30 37 36 32 16 14 28 48 49 54 60 62 52 40 42 45 39 38 43 87 208 169
89 84 84 84 81 77 71 66 54 48 41 28 35 40 27 24 28 14 22 25 17 17 23 17 16 19 12 23 21 15 21 16 18 20 18 18 18 16 16 12 11 11 8 11 10 9 10 13 14 9 12 14 16 11 12 8 8 12 14 16 20 22 26 29 39 37 37 39 22 35 52 51 45 42 53 57 52 41 42 41 37 33 23 46 84
104 94 89 96 92 83 75 63 54 43 43 44 27 44 36 18 22 25 25 20 23 19 23 21 13 19 15 20 26 14 20 24 16 16 18 14 13 16 14 11 11 11 10 9 9 6 6 12 13 14 10 13 15 16 7 3 3 7 13 14 17 23 19 19 27 31 29 33 21 23 42 51 50 38 44 49 53 50 46 48 42 35 37 32 33
98 103 111 96 90 82 76 67 60 45 35 29 31 40 51 5 31 29 27 24 28 24 26 23 17 17 18 18 27 19 11 26 20 13 13 14 14 17 22 14 12 12 10 8 11 8 4 5 10 15 15 10 12 17 12 1 359 358 7 5 11 18 20 19 18 16 15 21 26 27 43 50 59 52 47 50 49 46 47 46 47 43 45 46 48
103 101 95 95 86 79 62 54 49 39 30 31 28 27 50 17 18 35 23 25 38 33 24 25 24 19 18 16 23 21 11 16 22 21 15 12 17 14 24 35 17 20 13 12 11 13 6 1 1 11 12 11 9 15 13 358 349 352 354 4 7 15 23 24 13 8 12 1 5 17 34 39 43 45 39 39 43 46 48 48 47 44 45 47 53
104 83 71 68 65 59 55 54 42 31 31 37 39 35 32 22 15 37 23 23 21 31 39 31 27 23 15 21 17 17 18 15 15 52 59 40 21 17 19 58 50 37 30 20 26 22 17 5 7 20 10 1 359 1 354 327 340 3 6 358 2 4 2 16 14 9 10 19 21 27 26 32 37 38 36 35 36 41 42 40 43 47 49 47 48
118 112 105 94 76 65 53 42 39 29 37 40 39 45 35 20 18 33 32 31 22 15 23 34 31 28 13 9 19 15 14 13 11 23 123 116 48 40 5 31 83 120 3 5 19 43 14 23 17 27 36 22 360 336 322 341 355 4 6 7 1 5 13 13 11 16 32 35 27 23 20 24 30 34 34 31 27 32 37 38 30 32 37 41 44
127 122 102 83 74 65 57 44 36 30 39 41 44 39 46 19 26 48 29 33 23 23 28 21 22 25 23 2 14 14 10 8 9 8 10 26 129 107 45 47 60 83 114 141 76 109 44 46 31 20 61 105 35 357 350 347 354 3 7 3 3 360 4 7 10 17 30 34 25 29 24 23 26 29 40 39 37 40 37 40 39 39 36 39 42